Regional Weather Roundup
Issued by NWS Grand Forks, ND

Home | Current Version | Previous Version | Graphics & Text | Print | Product List | Glossary On
Versions: 1 2 3 4 5 6 7 8 9 10 11 12 13 14 15 16 17 18 19 20 21 22 23 24 25 26 27 28 29 30 31 32 33 34 35 36 37 38 39 40 41 42 43 44 45 46 47 48 49 50
000
ASUS43 KFGF 270031
RWRFGF
PRAIRIE TO PINES  WEATHER ROUNDUP
NATIONAL WEATHER SERVICE EASTERN NORTH DAKOTA/GRAND FORKS ND
700 PM CDT SUN APR 26 2015

 **SATELLITE DATA USED TO AUGMENT SKY COVER AT AUTOMATED STATIONS**
 *****  WEATHER ACROSS EASTERN NORTH DAKOTA  *****

CITY           SKY/WX    TMP DP  RH WIND       PRES   REMARKS
GRAND FORKS    PTSUNNY   68  24  19 CALM      30.10R
6HR MIN TEMP:  62; 6HR MAX TEMP:  69;

GRAND FRKS AFB MOSUNNY   66  26  21 CALM      30.10S
GRAND FRKS NWS   N/A     63 N/A N/A MISG        N/A
DEVILS LAKE    PTSUNNY   57  45  62 NW12      30.11R
6HR MIN TEMP:  55; 6HR MAX TEMP:  61;

FARGO          SUNNY     66  22  18 SE5       30.09S
WAHPETON ARPT  CLEAR     63  16  16 E8        30.11R
$$

 ***** WEATHER ACROSS CENTRAL AND WESTERN NORTH DAKOTA  *****

CITY           SKY/WX    TMP DP  RH WIND       PRES   REMARKS
BISMARCK       CLOUDY    56  48  74 N13       30.09F
6HR MIN TEMP:  52; 6HR MAX TEMP:  60;

MINOT          LGT RAIN  49  45  86 S6        30.13R
6HR MIN TEMP:  46; 6HR MAX TEMP:  49; 6HR PCP:  0.01;

JAMESTOWN      SUNNY     65  33  30 SE5       30.08R
6HR MIN TEMP:  62; 6HR MAX TEMP:  68;

MINOT AFB      DRIZZLE   49  49 100 S8        30.12R
GARRISON         N/A     49  46  90 N6        30.13R
WILLISTON      CLOUDY    54  34  46 N7        30.14R
6HR MIN TEMP:  47; 6HR MAX TEMP:  57;

DICKINSON      CLOUDY    44  41  89 NE8       30.11R
6HR MIN TEMP:  43; 6HR MAX TEMP:  45; 6HR PCP:  0.09;

HETTINGER      CLOUDY    47  45  93 N7        30.10R FOG
6HR MIN TEMP:  45; 6HR MAX TEMP:  49; 6HR PCP:  0.02;

$$

 *****  OTHER AIRPORT OBSERVATIONS IN OUR AREA  *****

CITY           SKY/WX    TMP DP  RH WIND       PRES   REMARKS
WALHALLA       FAIR      61  45  55 NW8       30.10S
GRAFTON AIRPOR FAIR      64  30  27 S6        30.11S
VALLEY CITY AR FAIR      63  28  27 CALM      30.10S
CANDO          CLOUDY    55  48  76 NW8       30.13R
CAVALIER APRT  FAIR      66  32  28 S6        30.09S
GWINNER        CLEAR     64  32  29 E5        30.11R
SHEYENNE NWR     N/A     67  22  18 SE3       29.95S
ROLLA          CLOUDY    50  50 100 W9        30.13F
 ***** THE ABOVE OBSERVATIONS ARE NON NWS ARE NOT QUALITY
       CONTROLLED AND MAY MIS-REPORT RAIN FOR SNOW...
$$

  *****  WEATHER ACROSS NORTHERN MINNESOTA  *****

CITY           SKY/WX    TMP DP  RH WIND       PRES   REMARKS
FLAG ISLAND    SUNNY     55  21  26 E3        30.13F
WARROAD        SUNNY     52  27  37 NE8       30.15R
ROSEAU         SUNNY     63  28  27 E12       30.12S
HALLOCK        SUNNY     66  19  16 SW6       30.10S
THF RVR FALLS  SUNNY     64  25  22 CALM      30.12S
6HR MIN TEMP:  61; 6HR MAX TEMP:  66;

BAUDETTE       MOSUNNY   62  20  19 NE6       30.14S
6HR MIN TEMP:  58; 6HR MAX TEMP:  64;

WASKISH        SUNNY     55  34  44 CALM      30.13S
CROOKSTON      SUNNY     66  25  20 CALM      30.11S
$$
  *****  WEATHER ACROSS CENTRAL AND WEST MINNESOTA  *****

CITY           SKY/WX    TMP DP  RH WIND       PRES   REMARKS
FOSSTON        SUNNY     64  27  24 NE9       30.12R
BEMIDJI        MOSUNNY   60  22  22 NE5       30.12S
PARK RAPIDS    MOSUNNY   62  14  15 E8        30.11S
6HR MIN TEMP:  57; 6HR MAX TEMP:  64;

ELBOW LAKE     FAIR      61  22  22 E7        30.10S
6HR MIN TEMP:  56; 6HR MAX TEMP:  62;

WADENA         MOSUNNY   61  25  25 NE9       30.11R
DETROIT LAKES  MOSUNNY   63  21  20 E3        30.12R
MOORHEAD       SUNNY     64  21  19 CALM      30.11R
FERGUS FALLS   SUNNY     63  12  14 E3        30.11S
MORRIS MN      SUNNY     63  19  19 E9        30.09S
STAPLES        SUNNY     57  16  19 CALM      30.11S
$$
  *****  WEATHER ELSEWHERE ACROSS MINNESOTA  *****

CITY           SKY/WX    TMP DP  RH WIND       PRES   REMARKS
DULUTH         SUNNY     50  19  29 E10       30.14S
6HR MIN TEMP:  49; 6HR MAX TEMP:  55;

INTRNTL FALLS  SUNNY     58   5  12 CALM      30.15S
6HR MIN TEMP:  54; 6HR MAX TEMP:  60;

ELY            SUNNY     55  21  26 NE5       30.13S
CLOQUET        SUNNY     52  16  24 E7        30.14R
WHEATON        SUNNY     61  25  25 E6        30.11S
BRAINERD       SUNNY     61  16  17 N5        30.11S
6HR MIN TEMP:  55; 6HR MAX TEMP:  62;

HIBBING        SUNNY     60  12  15 N6        30.11F
6HR MIN TEMP:  55; 6HR MAX TEMP:  63;

ALEXANDRIA     MOSUNNY   61  21  21 E9        30.11S
6HR MIN TEMP:  56; 6HR MAX TEMP:  62;

SAINT CLOUD    SUNNY     60  19  20 E8        30.09S
6HR MIN TEMP:  55; 6HR MAX TEMP:  62;

MINNEAPOLIS    MOSUNNY   62  23  22 N9        30.08S
6HR MIN TEMP:  56; 6HR MAX TEMP:  64;

$$

  *****  WEATHER ACROSS SOUTH DAKOTA  *****

CITY           SKY/WX    TMP DP  RH WIND       PRES   REMARKS
SIOUX FALLS    MOSUNNY   64  33  31 N14       30.03S
6HR MIN TEMP:  61; 6HR MAX TEMP:  67;

BROOKINGS      SUNNY     63  30  29 NE10      30.07S
WATERTOWN      SUNNY     62  30  29 E7        30.08R
6HR MIN TEMP:  60; 6HR MAX TEMP:  65;

HURON          SUNNY     66  31  27 E6        30.04S
6HR MIN TEMP:  61; 6HR MAX TEMP:  69;

SISSETON         N/A     64  26  23 E7        30.08S
ABERDEEN       SUNNY     67  33  28 E12       30.07R
6HR MIN TEMP:  62; 6HR MAX TEMP:  69;

MITCHELL       SUNNY     65  36  34 E7        30.05S
PIERRE         CLOUDY    63  34  33 E12       30.03S
6HR MIN TEMP:  59; 6HR MAX TEMP:  64;

MOBRIDGE       PTSUNNY   65  34  31 SE9       30.03S
RAPID CITY     CLOUDY    51  45  79 CALM      30.06R
6HR MIN TEMP:  46; 6HR MAX TEMP:  51; 6HR PCP:  0.03;

$$

  *****  SOME WEATHER IN NEARBY STATES *****

CITY           SKY/WX    TMP DP  RH WIND       PRES   REMARKS
GLASGOW MT     CLOUDY    43  33  68 NW7       30.20R
6HR MIN TEMP:  42; 6HR MAX TEMP:  44;

GREAT FALLS MT CLOUDY    42  29  59 W7        30.20R
6HR MIN TEMP:  36; 6HR MAX TEMP:  47;

CHEYENNE WY    CLOUDY    39  37  92 MISG      29.98R FOG
6HR MIN TEMP:  39; 6HR MAX TEMP:  44; 6HR PCP:  0.02;

SCOTTSBLUFF NE CLOUDY    46  32  58 SE14      30.01R
6HR MIN TEMP:  45; 6HR MAX TEMP:  47; 6HR PCP:  0.04;

OMAHA NE       MOSUNNY   62  35  36 E15       30.00S
6HR MIN TEMP:  58; 6HR MAX TEMP:  64;

DES MOINES IA  SUNNY     62  26  25 NE12      30.01S
6HR MIN TEMP:  60; 6HR MAX TEMP:  64;

DAVENPORT IA   CLEAR     56  32  40 NE10      30.01S
6HR MIN TEMP:  55; 6HR MAX TEMP:  59;

CHICAGO IL     PTCLDY    49  25  39 NE14      30.01R
6HR MIN TEMP:  49; 6HR MAX TEMP:  56;

EAU CLAIRE WI  SUNNY     61  20  20 N9        30.06R
6HR MIN TEMP:  56; 6HR MAX TEMP:  64;

LA CROSSE WI   CLEAR     63  26  24 N12       30.03S
6HR MIN TEMP:  59; 6HR MAX TEMP:  65;

$$

  *****  SOME NATIONAL WEATHER *****

CITY           SKY/WX    TMP DP  RH WIND       PRES   REMARKS
LA GUARDIA NY  MOCLDY    57  29  34 VRB3      29.66R
6HR MIN TEMP:  57; 6HR MAX TEMP:  61;

RALEIGH NC     MOCLDY    52  45  77 N5        29.75R
6HR MIN TEMP:  50; 6HR MAX TEMP:  54;

ATLANTA GA     MOCLDY    75  54  47 NW15      29.69R
6HR MIN TEMP:  75; 6HR MAX TEMP:  83;

NEW ORLEANS LA CLOUDY    79  63  57 NE10      29.68F
6HR MIN TEMP:  79; 6HR MAX TEMP:  84;

OKLAHOMA CITY  CLOUDY    69  57  65 NE15      29.70F
6HR MIN TEMP:  69; 6HR MAX TEMP:  74;

ALBUQUERQUE NM PTSUNNY   49  42  77 VRB3      29.77S
6HR MIN TEMP:  46; 6HR MAX TEMP:  52; 6HR PCP:  0.08;

SALT LAKE CITY CLOUDY    51  34  52 NW8       30.05R
6HR MIN TEMP:  47; 6HR MAX TEMP:  51;

LOS ANGELES CA MOSUNNY   67  49  52 W18       29.89F
6HR MIN TEMP:  64; 6HR MAX TEMP:  70;



USA.gov is the U.S. government's official web portal to all federal, state and local government web resources and services.